Вернуться в каталог

STARLINK-3599

АктивенСвязьVLEO
NORAD 51814·PAYLOAD·🇺🇸 United States

Запущен Feb 25, 2022 с Vandenberg Space Force Base

Loading…

Ближайшие Пролёты (ближайшие 24 часа)

TLE

СвежийSource: CelesTrak SupGP

Эпоха: Sep 14, 2026, 21:36 UTC

1 51814C 22017AY  26257.90048611 -.00013393  00000+0 -38340-3 0  2570
2 51814  53.1581 190.3931 0001267  95.8483 177.1811 15.35386452    12

Отслеживайте STARLINK-3599 в реальном времени с AllMySat

Download on the App Store